Regional Weather Roundup
Issued by NWS

Home | Current Version | Previous Version | Text Only | Print | Product List | Glossary On
Versions: 1 2 3 4 5 6 7 8 9 10 11 12 13 14 15 16 17 18 19 20 21 22 23 24 25 26 27 28 29 30 31 32 33 34 35 36 37 38 39 40 41 42 43 44 45 46 47 48 49 50
176
ASUS43 KTOP 210959
RWRKS

WEATHER ROUNDUP FOR KANSAS
NATIONAL WEATHER SERVICE GOODLAND KS
400 AM CST TUE FEB 21 2017

NOTE:  "FAIR" INDICATES FEW OR NO CLOUDS BELOW 12,000 FEET WITH NO
SIGNIFICANT WEATHER AND/OR OBSTRUCTIONS TO VISIBILITY.

KSZ001>006-013>018-027>032-041>047-211100-
NORTHWEST KANSAS

CITY           SKY/WX    TMP DP  RH WIND       PRES   REMARKS
GOODLAND       CLOUDY    40  14  34 SW13      29.99F WCI  32
HAYS           CLOUDY    28  26  92 NW7       30.03R
HILL CITY      CLOUDY    33  25  72 W6        30.01F
RUSSELL        CLOUDY    31  28  89 W6        30.01R
$$

KSZ061>065-074>080-084>089-211100-
SOUTHWEST KANSAS

CITY           SKY/WX    TMP DP  RH WIND       PRES   REMARKS
DODGE CITY     CLOUDY    31  22  69 SW7       30.05S
ELKHART          N/A     38  11  33 W8          N/A
GARDEN CITY    CLOUDY    30  17  58 W7        30.05S
GREAT BEND     CLOUDY    30  27  88 W5        30.03R
LIBERAL        CLOUDY    30  12  47 W9        30.07R
$$

KSZ066>073-081>083-090>101-211100-
SOUTHEAST KANSAS

CITY           SKY/WX    TMP DP  RH WIND       PRES   REMARKS
CHANUTE        MOCLDY    48  47  96 N8        29.92R
COFFEYVILLE    FOG       47  47 100 CALM      29.92R VSB 1/4
HUTCHINSON     CLEAR     36  33  89 NW7       30.00R
MEDICINE LODGE   N/A     38  33  82 CALM      30.02R
NEWTON         CLEAR     43  39  86 N9        29.98S
PARSONS        FOG       43  43 100 CALM      29.93R VSB 1/4
WICHITA INTL   CLEAR     45  40  82 N7        29.97F
WICHITA JABRA  CLEAR     43  40  89 N7        29.97F
WINFIELD       CLEAR     44  42  93 N6        29.97S
$$

KSZ007>012-019>026-033>040-048>060-102>105-211100-
NORTHEAST KANSAS

CITY           SKY/WX    TMP DP  RH WIND       PRES   REMARKS
CONCORDIA      CLOUDY    36  35  96 W12       29.99R WCI  28
EMPORIA        CLEAR     43  42  97 NW8       29.96F
LAWRENCE       PTCLDY    47  45  93 NW10      29.96R
MANHATTAN      CLEAR     34  33  96 CALM      29.99S FOG
OLATHE IND     PTCLDY    50  47  89 N12       29.94S
OLATHE EXE     CLOUDY    52  49  89 N9        29.93S
SALINA         CLEAR     36  32  85 SW3       30.00R
TOPEKA BILLARD CLEAR     47  42  83 NW5       29.97S
TOPEKA FORBES  CLEAR     42  40  92 NW8       29.97S
$$




USA.gov is the U.S. government's official web portal to all federal, state and local government web resources and services.